Regional Weather Roundup
Issued by NWS

Home | Current Version | Previous Version | Text Only | Print | Product List | Glossary On
Versions: 1 2 3 4 5 6 7 8 9 10 11 12 13 14 15 16 17 18 19 20 21 22 23 24 25 26 27 28 29 30 31 32 33 34 35 36 37 38 39 40 41 42 43 44 45 46 47 48 49 50
000
ASHW40 PHFO 220143
RWRHI

WEATHER ROUNDUP FOR HAWAII
NATIONAL WEATHER SERVICE HONOLULU HI
300 PM HST TUE OCT 21 2014

THIS IS AN AUTOMATED REPORT THAT HAS NOT BEEN QUALITY CONTROLLED.

NOTE..."FAIR" INDICATES FEW OR NO CLOUDS BELOW 12,000 FEET WITH NO
SIGNIFICANT WEATHER AND/OR OBSTRUCTIONS TO VISIBILITY.

* - THESE SITES REPORT LIMITED FIELDS

HIZ001>004-220200-
KAUAI-NIIHAU-

CITY           SKY/WX    TMP DP  RH WIND       PRES   REMARKS
LIHUE APT      CLOUDY    82  71  69 SE6       29.96F
PORT ALLEN*      N/A     84 N/A N/A E10         N/A
POIPU*           N/A     86 N/A N/A E2G8        N/A
PRINCEVILLE*     N/A     84 N/A N/A MISG        N/A
KOKOLE POINT*    N/A     86 N/A N/A MISG        N/A
MOLOAA DAIRY*  NOT AVBL
WAIMEA HTS*      N/A     84  66  54 SE7         N/A
PUU OPAE*        N/A     73  66  78 SE2G12      N/A
PUU LUA*       NOT AVBL
MAKAHA RIDGE*  NOT AVBL
$$

HIZ005>011-220200-
OAHU-

CITY           SKY/WX    TMP DP  RH WIND       PRES   REMARKS
HONOLULU       CLOUDY    86  71  60 SE12      29.92F HX  91
KALAELOA       CLOUDY    85  74  69 SE10      29.95F HX  92
KANEOHE MCB    PTSUNNY   84  73  69 E9        29.94S HX  90
WHEELER FIELD  FAIR      84  69  59 E10       29.96
BELLOWS*         N/A    N/A N/A N/A E13         N/A
KAHUKU*          N/A    N/A N/A N/A NE9G17      N/A
WHEELER*       NOT AVBL
WAIANAE HARBOR NOT AVBL
DILLINGHAM*      N/A     82  72  69 W3G9        N/A
KAHUKU TRN*      N/A     79  72  78 E7G17       N/A
KAWAILOA*        N/A     82  70  65 E7G14       N/A
KII*             N/A     82  73  74 E13         N/A
MAKUA RANGE*     N/A     81  73  78 SE3         N/A
OAHU FOREST NW   N/A     70  70 100 NW8G17      N/A
SCHOFIELD BRK*   N/A     82  68  61 MISG        N/A
SCHOFIELD S*   NOT AVBL
WAIANAE VLY*     N/A     75  72  88 SW2G10      N/A
KUAOKALA*        N/A     75  72  88 CALM        N/A
HONOULIUULI*   NOT AVBL
MOKUOLOE IS*     N/A    N/A N/A N/A MISG        N/A
PALEHUA*         N/A     90  75  62 CALM        N/A  HX 100
WAIAWA PHB*    NOT AVBL
$$

HIZ012>013-220200-
MOLOKAI-

CITY           SKY/WX    TMP DP  RH WIND       PRES   REMARKS
MOLOKAI AIRPT  PTSUNNY   81  75  82 NE9       29.95F
KALAUPAPA      NOT AVBL
MAKAPULAPAI*     N/A     84  73  70 E14G20      N/A  HX  91
MOLOKAI 1*       N/A     79  70  73 NW3         N/A
PUU ALII*        N/A     73  65  77 SE2         N/A
$$

HIZ016-220200-
KAHOOLAWE-

CITY           SKY/WX    TMP DP  RH WIND       PRES   REMARKS
KAHOOLAWE*       N/A     79 N/A N/A E13G21      N/A
HAKIOAWA*      NOT AVBL
HONOKANAIA*      N/A     87  68  53 E17G28    29.94F HX  91
KANELOA*         N/A     82  70  65 E17G28    29.18
KEALIALALO*    NOT AVBL
LUA MAKIKA*    NOT AVBL
$$

HIZ014>015-220200-
LANAI-

CITY           SKY/WX    TMP DP  RH WIND       PRES   REMARKS
LANAI CITY     FAIR      85  69  58 VRB6      30.00
LANAI 1*         N/A     77  77 100 NE12G18     N/A
$$

HIZ017>028-220200-
MAUI-

CITY           SKY/WX    TMP DP  RH WIND       PRES   REMARKS
KAHULUI        MOSUNNY   88  71  57 NE16G23   29.92F HX  94
KAPALUA-W MAUI MOSUNNY   81  73  78 NE14      29.92F
HANA AIRPORT   PTSUNNY   82  72  69 E7        29.97S
HANA*            N/A     82 N/A N/A E9G15       N/A
HALEAKALA SUMM   N/A     54  41  62 E12         N/A
MAALAEA BAY*   NOT AVBL
HALEAKALA*     NOT AVBL
KAUPO GAP*       N/A     75  57  53 SE5G13      N/A
KULA 1*          N/A     63  59  86 NW3G12      N/A
$$

HIZ023>026-220200-
BIG ISLAND OF HAWAII COAST AND LOWER SLOPES-

CITY           SKY/WX    TMP DP  RH WIND       PRES   REMARKS
KAILUA KONA    PTSUNNY   85  72  65 SW8       29.91F HX  91
HILO           SUNNY     86  70  58 E15       29.93F HX  90
HONOKAA*       NOT AVBL
KAWAIHAE MWT*    N/A     86 N/A N/A W6          N/A
KAWAIHAE*        N/A     82 N/A N/A W5          N/A
SOUTH POINT*     N/A     79 N/A N/A NE12G18     N/A
UPOLU AIRPORT*   N/A    N/A N/A N/A E15G21      N/A
KAMUELA*       MOCLDY    79  66  65 SW10      30.05S
HAKALAU*         N/A     68  55  64 SE6G13      N/A
KALOKO-HONOKO*   N/A     84  72  65 SW6       29.91F
PALI 2*          N/A     77  -4   4 SE13G22     N/A
KEALAKOMO*       N/A     84  70  61 E12         N/A
KAUPULEHU*       N/A     81  64  57 SW9G15      N/A
KAPAPALA*        N/A     80  64  58 SE1G10      N/A
LOWER KAHUKU*  NOT AVBL
PUHE CS*       NOT AVBL
PUHO CS*         N/A     86  71  60 W5G12       N/A  HX  91
PTA KEAMUKU*     N/A     72  66  83 W9          N/A
WAIKOLOA*        N/A     84  68  58 W10G17      N/A
$$

HIZ027>028-220200-
BIG ISLAND OF HAWAII INTERIOR AND SUMMMITS-

CITY           SKY/WX    TMP DP  RH WIND       PRES   REMARKS
BRADSHAW FIELD PTSUNNY   70  53  54 SE16G24   30.29F
MK VISITOR CEN NOT AVBL
MAUNA KEA*       N/A     41  30  65 NW1G14      N/A
MAUNA LOA*       N/A    N/A N/A N/A MISG        N/A
MAUNA LOA 1*     N/A    N/A N/A N/A MISG        N/A
PTA KIPUKA*      N/A     72  61  68 VRB6G13     N/A
PTA RANGE 17*    N/A     70  59  68 NW10G16     N/A
PTA WEST*        N/A     72  64  78 NW12        N/A
NENE CABIN*    NOT AVBL
AHUMOA*          N/A     61  60  95 N3G9        N/A
PTA PORTABLE*  NOT AVBL
PUU MALI*      NOT AVBL
$$

HIC003-220200-
NORTHWEST ISLANDS-

CITY           SKY/WX    TMP DP  RH WIND       PRES   REMARKS
MIDWAY ISLAND  SUNNY     86  77  74 S7        29.92F HX  97
MIDWAY NOS*    NOT AVBL
FRENCH FRIGATE NOT AVBL
$$

PHZ110>124-180-220200-
BUOY REPORTS

STATION/POSITION TIME  TEMP    WIND        PRES    WAVE   SWELL
                       AIR SEA DIR/SP/G            HT/PER HT/DIR
                 (UTC) (F)     (DEG/KT/KT) (MB)    (FT/S) (FT/D)
BUOY 51001       NOT AVBL
BUOY 51101       NOT AVBL
BUOY 51100       0100   79 80  100/ 12/ 14 1015.7F
BUOY 51003       0100   82 82  120/ 16/ 17 1012.9F   8/ 7   5
BUOY 51004       0021   80 81   80/ 16/ 17 1013.0F   8/13   7/360
BARBERS PT BUOY  NOT AVBL
WAIMEA BAY BUOY  0100      82                N/A     6/12   5/350
KAILUA BAY BUOY  0100      82                N/A     8/12   5/350
LANAI BUOY       0100      82                N/A     3/14   2/200
BARBERS PT 2     0100      82                N/A     6/12   3/250
PAUWELA MAUI     0100      81                N/A     7/12   3/340
HILO             0100      81                N/A     7/13   5/360
KANEOHE BAY BUOY NOT AVBL
HANALEI KAUAI    NOT AVBL
KAHULUI HARBOR   0100   82 81   50/ 15/ 19 1012.9F
HONOLULU HARBOR  0100   86     120/  3/  8 1013.7F
KILO NALU        NOT AVBL
HILO HARBOR      0100   91     110/  8/ 15 1013.0F
MOKUOLOE         0100      82              1014.3F
NAWILIWILI       0100      82                N/A
WHOTS BUOY       NOT AVBL
BUOY 51028       NOT AVBL
$$

......................KEY........................................
  SKY/WX - SKY CONDITIONS/PRESENT WEATHER
  TMP    - TEMPERATURE IN FAHRENHEIT
  DWPT   - DEWPOINT IN FAHRENHEIT
  RH     - RELATIVE HUMIDITY IN PERCENT
  WIND   - DIRECTION AND SPEED /MPH FOR ISLANDS...KTS FOR BUOYS/
  PRES   - MEAN SEA LEVEL PRESSURE IN INCHES OF HG
  VSB    - VISIBILITY IN MILES
  HX     - HEAT INDEX
  WCI    - WIND CHILL INDEX
  VRB    - VARIABLE WIND DIRECTION
  N/A    - NOT AVAILABLE



USA.gov is the U.S. government's official web portal to all federal, state and local government web resources and services.